• In Hungary
  • List of Countries
  • For 7 days
  • Water Temperature
  • Satellite Maps
  • Weather Map
  • News
  • Weather Widgets
  • user-avatar
    Login

    Hourly Weather Koma

    Today, 19 September, Wednesday

    Time Temperature Precipitation Wind Pressure Humidity
    00:00 +8°C° 0 mm 2 mps 716 mmHg 96%
    01:00 +8°C° 0 mm 2 mps 716 mmHg 96%
    02:00 +7°C° 0.1 mm 2 mps 717 mmHg 95%
    03:00 +7°C° 0.1 mm 2 mps 717 mmHg 95%
    04:00 +7°C° 0.1 mm 2 mps 717 mmHg 94%
    05:00 +7°C° 0.4 mm 3 mps 717 mmHg 92%
    06:00 +7°C° 0.4 mm 3 mps 717 mmHg 89%
    07:00 +6°C° 0.4 mm 4 mps 717 mmHg 86%
    08:00 +5°C° 0.8 mm 4 mps 717 mmHg 86%
    09:00 +5°C° 0.8 mm 4 mps 718 mmHg 86%
    10:00 +5°C° 0.8 mm 4 mps 718 mmHg 86%
    11:00 +5°C° 0.7 mm 4 mps 718 mmHg 85%
    12:00 +5°C° 0.7 mm 4 mps 718 mmHg 85%
    13:00 +5°C° 0.7 mm 5 mps 718 mmHg 85%
    14:00 +5°C° 1.3 mm 4 mps 718 mmHg 86%
    15:00 +4°C° 1.3 mm 4 mps 717 mmHg 88%
    16:00 +4°C° 1.3 mm 4 mps 717 mmHg 89%
    17:00 +3°C° 1.2 mm 5 mps 717 mmHg 90%
    18:00 +3°C° 1.2 mm 5 mps 717 mmHg 90%
    19:00 +3°C° 1.2 mm 5 mps 716 mmHg 91%
    20:00 +2°C° 1.3 mm 6 mps 716 mmHg 91%
    21:00 +2°C° 1.3 mm 6 mps 716 mmHg 90%
    22:00 +2°C° 1.3 mm 6 mps 715 mmHg 90%
    23:00 +2°C° 1.6 mm 7 mps 715 mmHg 91%

    Tomorrow, 20 September, Thursday

    Time Temperature Precipitation Wind Pressure Humidity
    00:00 +2°C° 1.6 mm 7 mps 715 mmHg 91%
    01:00 +2°C° 1.6 mm 7 mps 714 mmHg 91%
    02:00 +2°C° 1.4 mm 7 mps 714 mmHg 92%
    03:00 +2°C° 1.4 mm 7 mps 714 mmHg 92%
    04:00 +2°C° 1.4 mm 7 mps 714 mmHg 92%
    05:00 +2°C° 1.5 mm 7 mps 714 mmHg 92%
    06:00 0°C° 1.5 mm 7 mps 714 mmHg 92%
    07:00 0°C° 1.5 mm 8 mps 714 mmHg 92%
    08:00 0°C° 2 mm 7 mps 714 mmHg 93%
    09:00 +2°C° 2 mm 7 mps 714 mmHg 93%
    10:00 +2°C° 2 mm 7 mps 714 mmHg 94%
    11:00 +2°C° 1.2 mm 7 mps 714 mmHg 94%
    12:00 +2°C° 1.2 mm 7 mps 714 mmHg 94%
    13:00 +2°C° 1.2 mm 7 mps 714 mmHg 94%
    14:00 +2°C° 0.2 mm 6 mps 715 mmHg 95%
    15:00 +2°C° 0.2 mm 6 mps 715 mmHg 95%
    16:00 +3°C° 0.2 mm 5 mps 716 mmHg 95%
    17:00 +3°C° 0.1 mm 5 mps 717 mmHg 95%
    18:00 +2°C° 0.1 mm 5 mps 717 mmHg 95%
    19:00 +3°C° 0.1 mm 4 mps 718 mmHg 95%
    20:00 +3°C° 0.1 mm 4 mps 719 mmHg 95%
    21:00 +3°C° 0.1 mm 4 mps 719 mmHg 95%
    22:00 +3°C° 0.1 mm 3 mps 720 mmHg 95%
    23:00 +3°C° 0.2 mm 3 mps 720 mmHg 95%

    Day after tomorrow, 21 September, Friday

    Time Temperature Precipitation Wind Pressure Humidity
    00:00 +3°C° 0.2 mm 3 mps 720 mmHg 95%
    01:00 +3°C° 0.2 mm 3 mps 720 mmHg 95%
    02:00 +3°C° 0.1 mm 3 mps 720 mmHg 95%
    03:00 +3°C° 0.1 mm 3 mps 720 mmHg 95%
    04:00 +3°C° 0.1 mm 3 mps 720 mmHg 95%
    05:00 +3°C° 0.1 mm 3 mps 721 mmHg 96%
    06:00 +3°C° 0.1 mm 3 mps 721 mmHg 96%
    07:00 +3°C° 0.1 mm 3 mps 721 mmHg 96%
    08:00 +3°C° 0.1 mm 3 mps 722 mmHg 95%
    09:00 +4°C° 0.1 mm 3 mps 722 mmHg 94%
    10:00 +5°C° 0.1 mm 3 mps 722 mmHg 93%
    11:00 +5°C° 0.1 mm 3 mps 722 mmHg 92%
    12:00 +5°C° 0.1 mm 3 mps 722 mmHg 91%
    13:00 +7°C° 0.1 mm 3 mps 722 mmHg 90%
    14:00 +7°C° 0 mm 3 mps 722 mmHg 90%
    15:00 +7°C° 0 mm 3 mps 722 mmHg 90%
    16:00 +7°C° 0 mm 3 mps 723 mmHg 90%
    17:00 +5°C° 0 mm 2 mps 723 mmHg 91%
    18:00 +4°C° 0 mm 2 mps 723 mmHg 93%
    19:00 +4°C° 0 mm 1 mps 723 mmHg 95%
    20:00 +4°C° 0 mm 1 mps 724 mmHg 95%
    21:00 +3°C° 0 mm 1 mps 724 mmHg 95%
    22:00 +3°C° 0 mm 1 mps 724 mmHg 96%
    23:00 +3°C° 0 mm 1 mps 724 mmHg 96%

    22 September, Saturday

    Time Temperature Precipitation Wind Pressure Humidity
    00:00 +2°C° 0 mm 1 mps 724 mmHg 96%
    01:00 +2°C° 0 mm 1 mps 725 mmHg 96%
    02:00 +2°C° 0 mm 1 mps 725 mmHg 96%
    03:00 +2°C° 0 mm 1 mps 725 mmHg 96%
    04:00 +2°C° 0 mm 1 mps 725 mmHg 96%
    05:00 +3°C° 0 mm 1 mps 725 mmHg 95%
    06:00 +3°C° 0 mm 1 mps 726 mmHg 94%
    07:00 +4°C° 0 mm 1 mps 726 mmHg 93%
    08:00 +6°C° 0 mm 1 mps 726 mmHg 91%
    09:00 +7°C° 0 mm 1 mps 726 mmHg 88%
    10:00 +9°C° 0 mm 1 mps 726 mmHg 86%
    11:00 +9°C° 0 mm 1 mps 726 mmHg 84%
    12:00 +10°C° 0 mm 1 mps 726 mmHg 82%
    13:00 +11°C° 0 mm 1 mps 725 mmHg 81%
    14:00 +10°C° 0 mm 1 mps 725 mmHg 81%
    15:00 +10°C° 0 mm 1 mps 725 mmHg 82%
    16:00 +10°C° 0 mm 1 mps 725 mmHg 82%
    17:00 +8°C° 0 mm 1 mps 725 mmHg 86%
    18:00 +7°C° 0 mm 1 mps 725 mmHg 89%
    19:00 +5°C° 0 mm 1 mps 726 mmHg 92%
    20:00 +4°C° 0 mm 1 mps 726 mmHg 92%
    21:00 +4°C° 0 mm 1 mps 726 mmHg 92%
    22:00 +3°C° 0 mm 1 mps 726 mmHg 92%
    23:00 +3°C° 0 mm 1 mps 726 mmHg 92%

    23 September, Sunday

    Time Temperature Precipitation Wind Pressure Humidity
    00:00 +3°C° 0 mm 1 mps 726 mmHg 93%
    01:00 +3°C° 0 mm 1 mps 726 mmHg 93%
    02:00 +3°C° 0 mm 1 mps 726 mmHg 94%
    03:00 +4°C° 0 mm 1 mps 726 mmHg 94%
    04:00 +4°C° 0 mm 1 mps 726 mmHg 95%
    05:00 +4°C° 0 mm 1 mps 726 mmHg 94%
    06:00 +5°C° 0 mm 1 mps 726 mmHg 94%
    07:00 +4°C° 0 mm 2 mps 726 mmHg 93%
    08:00 +5°C° 0 mm 2 mps 726 mmHg 91%
    09:00 +6°C° 0 mm 2 mps 726 mmHg 88%
    10:00 +7°C° 0 mm 2 mps 725 mmHg 86%
    11:00 +9°C° 0 mm 2 mps 725 mmHg 83%
    12:00 +11°C° 0 mm 1 mps 725 mmHg 79%
    13:00 +12°C° 0 mm 1 mps 724 mmHg 76%
    14:00 +12°C° 0 mm 1 mps 724 mmHg 77%
    15:00 +12°C° 0 mm 1 mps 724 mmHg 77%
    16:00 +12°C° 0 mm 1 mps 724 mmHg 77%
    17:00 +10°C° 0 mm 1 mps 724 mmHg 82%
    18:00 +8°C° 0 mm 1 mps 724 mmHg 87%
    19:00 +7°C° 0 mm 1 mps 724 mmHg 92%
    20:00 +6°C° 0 mm 1 mps 724 mmHg 93%
    21:00 +6°C° 0 mm 1 mps 724 mmHg 94%
    22:00 +5°C° 0 mm 1 mps 724 mmHg 94%
    23:00 +5°C° 0 mm 1 mps 724 mmHg 94%

    24 September, Monday

    Time Temperature Precipitation Wind Pressure Humidity
    00:00 +3°C° 0 mm 2 mps 723 mmHg 95%
    01:00 +3°C° 0 mm 2 mps 723 mmHg 95%
    02:00 +3°C° 0 mm 2 mps 723 mmHg 95%
    03:00 +3°C° 0 mm 2 mps 723 mmHg 95%
    04:00 +2°C° 0 mm 2 mps 723 mmHg 95%
    05:00 +3°C° 0 mm 2 mps 723 mmHg 93%
    06:00 +3°C° 0 mm 2 mps 723 mmHg 91%
    07:00 +4°C° 0 mm 2 mps 723 mmHg 89%
    08:00 +6°C° 0 mm 2 mps 723 mmHg 83%
    09:00 +8°C° 0 mm 2 mps 722 mmHg 78%
    10:00 +10°C° 0 mm 2 mps 722 mmHg 73%
    11:00 +12°C° 0 mm 2 mps 721 mmHg 70%
    12:00 +13°C° 0 mm 2 mps 721 mmHg 68%
    13:00 +14°C° 0 mm 2 mps 721 mmHg 65%
    14:00 +14°C° 0 mm 1 mps 720 mmHg 67%
    15:00 +14°C° 0 mm 1 mps 720 mmHg 68%
    16:00 +13°C° 0 mm 1 mps 720 mmHg 70%
    17:00 +12°C° 0 mm 1 mps 720 mmHg 76%
    18:00 +10°C° 0 mm 1 mps 720 mmHg 81%
    19:00 +8°C° 0 mm 1 mps 720 mmHg 87%
    20:00 +7°C° 0 mm 1 mps 720 mmHg 88%
    21:00 +7°C° 0 mm 1 mps 720 mmHg 89%
    22:00 +6°C° 0 mm 1 mps 720 mmHg 90%
    23:00 +6°C° 0 mm 1 mps 720 mmHg 91%
    Show more